Wind_Speed
36 43 30 22 18 31 37 35 26 24 19 27 24 10 18 14 14 26 22 15 14 4 4 3 2 11 15 11 10 12 9 3 5 11 6 3 6 11 16 20 22 19 20 21 19 21 23 24 27
35 43 41 22 22 18 26 32 36 30 22 24 21 21 23 24 21 29 35 19 1 3 3 2 6 11 13 8 8 9 10 8 9 11 6 1 4 8 10 16 16 19 20 20 20 20 20 22 24
33 38 41 38 19 11 17 21 29 25 16 18 21 21 25 23 25 31 25 26 10 8 8 5 4 12 3 6 8 10 11 10 8 6 4 1 1 6 10 13 15 14 19 22 20 20 19 20 21
35 33 37 40 38 32 15 10 17 19 20 22 20 19 25 28 26 27 30 27 15 10 6 5 2 1 5 7 7 9 11 11 7 5 3 2 3 4 7 9 11 6 13 20 22 20 20 19 21
36 37 35 34 37 35 33 29 15 12 21 25 25 18 19 21 17 17 13 4 3 5 4 3 5 6 7 6 7 8 9 9 9 7 6 5 5 6 8 8 7 4 4 12 17 19 18 18 18
42 37 39 35 34 33 31 30 27 23 19 14 11 11 11 10 9 8 5 5 5 6 7 6 5 4 5 5 5 7 8 8 8 7 7 6 7 7 7 8 6 2 1 5 10 12 14 15 14
42 43 39 38 39 35 29 27 26 22 19 16 16 13 12 11 10 8 8 7 7 8 8 7 6 5 5 4 5 6 6 5 3 2 4 5 7 8 7 6 8 5 3 4 5 5 7 7 8
37 40 42 40 37 37 35 32 29 26 22 17 13 12 10 9 7 6 6 5 5 4 4 4 4 4 3 2 0 1 1 3 5 6 7 7 8 9 10 9 8 8 8 6 5 5 1 2 3
34 34 37 40 40 37 33 33 31 28 24 20 16 15 14 13 11 9 8 7 8 8 7 6 5 4 4 5 7 8 9 10 11 12 12 12 12 13 14 15 14 13 12 7 4 3 2 3 2
30 34 35 35 37 37 37 35 33 30 28 26 26 27 25 22 20 17 15 12 11 10 9 10 11 13 13 14 14 15 16 17 17 18 19 20 19 20 17 16 17 18 18 14 10 5 3 2 10
24 31 34 35 36 35 35 35 32 30 30 29 27 27 27 26 25 24 22 18 16 14 13 13 14 14 14 15 17 18 20 21 22 22 23 24 23 20 18 15 14 17 18 17 16 14 9 8 13
21 19 20 26 29 33 33 33 34 30 29 30 29 28 28 27 27 27 26 24 20 17 14 12 13 15 16 18 20 21 21 21 21 21 20 21 21 20 18 16 15 15 17 19 19 20 16 13 13
23 23 22 25 27 27 28 31 33 32 31 32 31 29 29 30 30 29 29 28 26 21 19 16 14 14 14 16 18 20 21 22 22 22 21 20 19 18 14 12 14 16 17 19 20 21 24 23 22
20 21 22 23 24 23 25 29 32 32 30 33 34 34 35 37 37 36 31 29 28 26 22 19 18 16 16 17 20 21 23 24 24 23 23 20 18 14 9 12 12 15 18 20 24 24 25 26 24
13 15 17 20 18 19 20 22 28 33 31 33 34 35 36 38 38 37 30 32 31 27 23 21 19 17 16 17 19 19 20 21 23 25 25 22 16 13 11 17 21 19 22 22 23 26 27 26 29
9 11 15 16 18 18 22 24 24 25 30 31 32 32 33 38 38 38 37 33 34 32 27 26 25 22 19 19 21 22 21 20 18 19 19 17 17 13 18 23 21 26 25 22 19 21 25 26 26
2 5 8 15 16 16 21 23 22 26 26 28 28 31 33 35 39 39 41 40 40 39 40 33 30 28 25 23 24 24 22 19 18 17 14 15 19 20 22 25 23 21 19 18 17 17 21 24 26
6 4 2 10 12 14 20 22 18 21 24 28 28 26 32 34 39 42 43 44 48 46 44 43 35 33 29 26 29 27 25 19 15 17 17 18 18 19 21 23 24 24 18 16 17 19 20 21 23
11 12 5 7 8 14 16 22 18 18 22 24 26 26 29 35 37 39 42 45 50 53 51 44 39 35 28 28 28 29 27 23 17 15 15 16 22 22 22 22 22 19 17 17 18 18 21 24 25
13 9 9 13 12 15 16 20 17 19 22 25 25 22 25 35 35 38 41 46 49 53 53 51 45 40 34 30 29 28 26 26 25 21 17 17 17 20 22 20 21 14 15 16 16 16 15 15 19
17 13 13 14 15 11 16 20 20 23 24 26 28 26 27 33 39 42 42 46 50 53 56 53 51 46 39 35 33 30 29 26 24 23 20 21 25 25 25 22 20 20 18 19 18 19 15 14 16
19 15 12 14 17 19 20 22 22 26 26 28 31 33 33 37 41 44 45 47 51 53 56 57 53 49 45 40 39 39 35 33 30 26 24 24 25 27 27 26 28 26 22 21 20 22 23 14 15
18 18 14 20 21 20 22 23 25 27 31 29 33 35 36 40 43 45 45 49 51 54 58 61 56 50 49 47 39 40 41 40 37 32 29 29 30 33 34 32 32 37 32 27 24 25 26 26 25
22 16 13 22 24 24 26 26 28 27 29 30 35 35 36 40 43 43 45 52 54 55 59 63 62 58 53 48 42 41 45 45 44 41 37 33 33 34 39 40 36 36 41 36 33 31 30 33 34
20 20 20 23 25 29 28 28 27 27 29 31 35 38 39 43 44 47 50 54 60 61 63 66 68 62 58 53 47 45 46 45 47 47 45 43 40 39 40 43 43 42 44 38 30 29 31 41 44
27 22 30 28 25 28 30 24 26 28 29 33 37 39 40 44 47 52 55 56 58 64 65 67 68 64 60 52 48 50 50 51 54 53 51 50 49 47 47 46 47 44 48 46 45 38 62 57 50
26 28 29 27 28 31 26 25 29 29 34 39 41 41 43 45 49 54 56 54 61 64 65 67 68 66 62 55 52 51 51 55 55 53 51 51 51 53 57 53 47 46 49 54 57 64 59 53 51
28 30 30 27 31 30 28 29 30 33 39 44 42 41 43 46 51 54 55 60 63 68 69 70 71 69 63 55 53 55 60 61 59 59 58 57 58 61 58 54 51 47 46 57 60 64 67 63 52
30 27 28 32 31 33 32 32 32 37 42 42 42 42 45 50 54 53 59 64 66 70 72 72 73 70 59 55 57 61 63 61 59 59 60 63 60 57 54 53 54 54 52 52 63 68 70 69 65
27 33 36 33 33 31 32 32 36 40 42 42 43 46 48 52 51 56 64 65 66 71 74 74 75 67 59 59 62 66 64 61 60 63 65 61 59 56 54 55 57 58 58 58 59 63 69 75 74
Wind_Direction
55 62 79 111 159 188 198 203 182 187 199 207 216 212 231 231 260 253 259 275 275 301 347 62 17 336 341 358 5 348 11 12 146 140 112 53 49 35 37 42 44 49 52 59 58 56 53 53 49
58 63 66 99 145 169 191 198 203 195 203 211 208 214 226 251 259 269 289 296 153 190 252 260 306 341 325 26 19 36 53 67 124 133 133 97 36 20 27 29 43 51 58 53 59 61 57 56 56
68 69 70 71 87 159 179 193 217 229 228 225 223 244 251 261 269 266 284 300 276 272 256 282 290 326 52 49 56 58 66 77 101 121 134 131 29 9 14 18 23 39 54 58 54 54 57 54 53
74 77 76 75 73 73 82 187 203 211 226 236 238 258 261 265 264 272 278 284 282 274 257 248 227 211 96 85 66 67 63 73 70 64 53 31 6 343 18 14 24 34 42 49 47 47 45 50 50
69 78 80 80 82 79 74 83 112 210 231 243 250 247 274 277 278 282 273 251 65 61 53 102 134 160 125 111 68 72 76 67 61 48 26 1 357 3 28 30 34 46 47 41 33 32 34 45 46
69 74 80 82 80 80 85 88 90 91 95 103 122 124 114 104 95 85 74 58 47 47 45 67 109 103 90 85 76 83 87 82 71 52 34 12 4 4 10 20 29 71 100 6 15 14 24 23 39
69 71 78 78 83 84 81 83 83 86 89 92 94 90 84 81 77 73 66 62 60 67 73 71 67 68 59 60 75 86 87 92 76 28 2 346 340 342 348 1 4 3 224 242 306 354 15 25 15
69 70 76 79 80 80 83 84 83 80 77 71 64 59 48 37 35 26 20 12 6 34 51 75 89 95 100 106 13 296 272 284 291 299 304 314 318 321 325 322 322 327 332 327 316 323 4 133 60
73 70 71 76 79 81 79 78 78 75 70 65 65 63 55 41 32 17 359 340 323 325 331 334 322 303 288 282 286 288 289 291 294 296 297 295 295 299 298 299 294 298 292 299 324 317 329 191 203
80 77 73 73 73 73 73 70 67 67 63 59 54 52 53 48 42 32 19 359 336 323 312 304 302 301 301 302 301 299 297 294 292 294 295 295 293 292 292 283 272 274 279 270 264 257 293 94 292
80 85 78 70 65 65 67 66 63 59 57 53 50 51 52 48 44 42 37 30 20 1 336 319 303 292 291 294 295 295 293 292 290 290 289 289 289 289 287 285 279 271 269 263 258 251 240 208 241
79 88 76 71 71 69 63 61 59 54 51 50 51 53 52 44 40 37 34 32 26 17 4 348 321 307 299 295 293 290 287 285 283 281 281 280 280 280 282 279 274 267 263 262 255 250 244 232 224
90 84 86 76 75 68 66 59 59 55 51 53 48 50 47 38 33 31 28 25 20 14 5 352 336 326 315 308 303 298 291 287 284 282 279 278 279 278 281 289 280 269 263 261 254 248 245 245 239
98 95 86 79 71 67 62 58 60 51 51 50 45 43 40 35 32 28 28 25 21 17 12 359 345 331 320 314 311 308 304 299 293 288 286 284 280 275 284 288 284 276 276 268 259 251 240 241 239
103 97 81 64 57 61 58 53 49 53 46 42 43 40 35 35 33 31 30 26 22 15 7 1 354 346 335 329 324 321 317 309 304 301 295 283 267 249 265 286 283 283 270 263 260 252 246 244 243
105 102 91 61 39 58 54 47 48 46 44 33 32 36 33 33 31 29 27 22 20 15 7 359 357 349 341 340 335 329 321 312 307 304 296 270 262 270 290 307 296 306 290 274 262 254 249 245 244
121 113 83 39 40 51 53 49 42 40 33 23 19 26 32 29 28 26 25 23 16 13 12 5 5 2 355 349 349 342 331 317 305 296 303 279 270 287 291 299 308 321 304 284 263 253 246 246 244
223 293 137 22 36 35 29 26 28 23 22 14 10 21 29 27 23 22 21 18 16 13 8 8 6 4 2 358 2 356 351 332 312 297 289 279 276 279 282 290 302 317 296 282 264 250 247 248 246
227 259 281 344 344 356 358 10 20 16 16 8 11 11 17 17 13 14 14 13 11 11 11 8 5 4 5 3 7 7 4 354 327 301 281 283 269 269 275 287 288 304 294 269 259 253 245 238 237
217 252 283 309 308 336 347 356 4 6 8 3 3 3 360 2 8 5 7 6 6 8 6 6 3 360 3 1 357 359 357 359 349 323 298 276 269 267 272 274 278 282 271 265 265 261 245 247 241
218 230 270 287 292 316 325 334 350 352 356 351 354 349 346 351 355 357 360 360 359 2 2 1 359 359 352 355 353 354 356 349 345 343 322 298 282 267 264 273 261 284 278 265 279 275 255 236 223
232 235 280 275 272 300 303 319 338 338 345 345 343 343 340 342 346 354 352 351 352 354 357 356 355 354 352 344 347 349 346 346 342 331 322 314 296 285 282 275 255 253 260 254 260 283 285 251 243
230 246 264 266 276 289 301 312 321 327 340 339 338 339 339 343 345 348 348 346 348 347 350 352 352 350 346 346 336 336 340 339 339 336 319 314 302 296 295 294 273 258 249 247 249 261 269 281 266
241 245 257 268 271 283 293 307 313 327 338 336 335 335 335 336 339 341 342 343 342 341 346 348 348 347 343 339 334 333 335 332 330 328 322 311 304 297 295 293 284 257 256 251 251 254 262 275 264
219 260 262 255 266 277 287 298 307 326 331 328 332 332 330 332 336 338 339 340 339 338 339 343 342 342 340 335 331 329 326 324 324 322 318 313 307 298 291 287 281 267 250 244 249 246 266 273 271
240 243 250 252 262 276 287 304 310 325 322 326 332 328 325 325 328 335 336 336 335 337 336 338 339 339 336 329 324 322 323 322 322 322 317 313 309 304 299 295 281 270 256 241 234 244 259 264 280
236 242 250 257 271 274 288 295 307 318 319 323 325 324 323 322 324 329 331 335 335 335 336 336 335 334 332 327 323 321 321 318 316 314 312 309 307 304 303 298 289 273 259 248 240 245 254 251 262
237 242 243 256 263 275 282 300 309 314 316 319 320 320 321 321 323 325 328 331 329 333 334 334 333 332 329 323 323 323 321 318 316 315 312 310 308 305 302 298 293 283 268 249 249 249 255 252 258
235 245 250 254 262 275 290 299 306 310 314 315 318 318 317 318 320 325 329 329 325 328 330 329 329 330 324 322 322 321 320 316 314 311 310 308 305 302 298 295 291 286 278 267 252 248 246 249 251
235 242 243 259 269 281 290 298 303 307 309 313 315 313 312 313 319 322 327 325 326 326 324 325 328 327 321 320 320 321 317 316 312 313 313 309 306 303 299 295 290 284 277 270 264 258 252 249 246
Height
10986 10978 10974 10975 10979 10985 10990 10994 10998 11001 11004 11006 11007 11009 11009 11009 11009 11007 11005 11004 11000 10999 10998 10995 10995 10993 10991 10988 10986 10985 10982 10982 10983 10985 10986 10987 10984 10984 10980 10978 10976 10974 10971 10970 10968 10965 10962 10960 10957
10990 10984 10980 10979 10983 10988 10992 10996 10999 11002 11004 11005 11007 11008 11008 11007 11008 11006 11004 11003 11000 10998 10998 10995 10994 10993 10992 10990 10988 10987 10984 10984 10984 10985 10987 10987 10986 10984 10982 10978 10976 10975 10973 10972 10971 10968 10967 10964 10960
10996 10992 10988 10986 10987 10990 10993 10997 11000 11001 11003 11004 11006 11007 11008 11007 11008 11006 11003 11000 11000 10998 10997 10993 10993 10993 10992 10990 10989 10989 10987 10986 10986 10986 10986 10986 10986 10985 10982 10979 10976 10975 10973 10972 10972 10971 10969 10968 10965
11002 11000 10996 10992 10992 10994 10994 10997 11000 11003 11004 11005 11007 11007 11007 11006 11006 11005 11003 11002 11000 10996 10994 10993 10993 10993 10992 10991 10991 10989 10988 10987 10985 10985 10985 10984 10984 10983 10981 10980 10978 10976 10975 10972 10971 10971 10969 10969 10966
11007 11004 11001 11000 10999 11000 11001 11002 11002 11004 11007 11007 11009 11009 11009 11008 11005 11003 11003 11002 10999 10997 10995 10993 10993 10993 10992 10992 10992 10990 10989 10988 10986 10984 10983 10982 10982 10981 10980 10979 10978 10976 10975 10973 10972 10971 10970 10968 10967
11013 11011 11007 11005 11003 11005 11008 11009 11008 11008 11008 11010 11010 11010 11009 11008 11007 11005 11004 11002 11000 10997 10996 10995 10994 10993 10992 10991 10992 10991 10990 10989 10988 10986 10984 10983 10981 10979 10979 10978 10977 10977 10975 10974 10974 10973 10972 10971 10969
11019 11017 11014 11012 11008 11009 11012 11013 11013 11013 11014 11015 11013 11013 11011 11009 11007 11005 11003 11002 11000 10997 10996 10996 10994 10993 10992 10992 10992 10991 10990 10989 10988 10986 10985 10983 10981 10980 10978 10977 10976 10976 10976 10975 10973 10974 10973 10973 10972
11025 11023 11021 11018 11016 11016 11016 11017 11017 11016 11016 11016 11014 11013 11011 11010 11008 11006 11003 11002 11000 10998 10996 10995 10994 10992 10991 10991 10990 10989 10988 10987 10986 10985 10984 10983 10981 10979 10977 10975 10974 10974 10973 10973 10972 10972 10972 10972 10972
11032 11029 11027 11026 11023 11022 11022 11021 11019 11017 11019 11020 11018 11015 11013 11011 11009 11006 11004 11001 11000 10998 10997 10995 10994 10992 10991 10990 10988 10987 10986 10985 10983 10982 10981 10980 10978 10977 10976 10974 10972 10971 10972 10971 10971 10970 10971 10970 10971
11036 11034 11031 11030 11029 11027 11025 11024 11023 11022 11023 11023 11021 11018 11015 11013 11010 11007 11004 11002 11000 10998 10996 10995 10994 10993 10991 10989 10987 10985 10984 10982 10980 10978 10977 10976 10975 10974 10973 10972 10970 10968 10968 10969 10969 10969 10968 10969 10969
11041 11039 11037 11034 11032 11030 11029 11028 11029 11027 11026 11025 11022 11020 11017 11014 11011 11007 11004 11002 10999 10997 10995 10994 10992 10990 10988 10986 10984 10982 10980 10978 10976 10974 10972 10971 10970 10969 10968 10968 10967 10965 10964 10964 10965 10966 10967 10967 10967
11043 11041 11041 11039 11037 11035 11034 11033 11031 11031 11029 11027 11026 11023 11019 11016 11012 11008 11005 11002 10999 10996 10994 10992 10990 10988 10985 10983 10981 10979 10976 10974 10971 10969 10968 10967 10966 10964 10963 10963 10961 10961 10960 10959 10960 10961 10962 10964 10963
11045 11044 11044 11043 11041 11040 11039 11037 11034 11033 11034 11032 11030 11026 11022 11019 11015 11011 11008 11004 11000 10997 10994 10992 10989 10985 10982 10979 10977 10975 10972 10969 10967 10965 10964 10963 10961 10960 10958 10958 10957 10956 10956 10956 10955 10955 10956 10956 10958
11046 11046 11045 11044 11043 11042 11042 11040 11037 11036 11036 11034 11031 11028 11024 11021 11017 11013 11011 11006 11002 10998 10994 10991 10987 10983 10980 10977 10974 10971 10968 10965 10962 10960 10959 10958 10957 10956 10954 10953 10953 10953 10951 10950 10950 10950 10951 10950 10952
11048 11048 11048 11047 11045 11044 11044 11042 11040 11038 11036 11034 11032 11029 11025 11023 11019 11015 11012 11007 11002 10998 10993 10988 10984 10980 10976 10973 10970 10966 10963 10960 10958 10957 10955 10953 10952 10951 10949 10949 10947 10944 10943 10941 10940 10941 10941 10942 10944
11048 11048 11048 11048 11046 11045 11044 11043 11041 11038 11036 11035 11033 11030 11027 11023 11020 11016 11012 11008 11004 11000 10994 10988 10982 10978 10973 10970 10966 10961 10959 10956 10954 10951 10950 10949 10948 10947 10947 10944 10941 10938 10935 10932 10931 10929 10931 10933 10936
11048 11048 11047 11047 11046 11045 11045 11043 11042 11039 11037 11036 11033 11031 11027 11023 11021 11016 11011 11008 11004 10998 10992 10986 10981 10975 10970 10966 10962 10958 10954 10951 10948 10946 10944 10944 10944 10943 10941 10937 10934 10932 10929 10927 10923 10922 10922 10925 10927
11047 11048 11046 11045 11045 11045 11045 11044 11043 11040 11038 11036 11033 11030 11028 11023 11019 11015 11010 11006 11002 10996 10990 10984 10978 10972 10967 10962 10958 10953 10950 10946 10944 10942 10941 10939 10938 10937 10936 10932 10927 10924 10922 10920 10918 10917 10916 10917 10920
11045 11046 11045 11044 11044 11043 11043 11043 11042 11040 11038 11037 11033 11030 11027 11023 11018 11013 11008 11003 10998 10994 10988 10982 10977 10972 10966 10960 10956 10951 10947 10943 10940 10937 10935 10934 10932 10930 10928 10926 10922 10920 10916 10915 10913 10913 10912 10911 10911
11043 11044 11044 11044 11044 11042 11041 11041 11041 11040 11037 11036 11033 11030 11026 11022 11017 11012 11006 11001 10996 10991 10987 10981 10975 10969 10965 10960 10955 10950 10946 10943 10938 10934 10930 10928 10926 10925 10924 10921 10917 10915 10914 10911 10910 10909 10907 10908 10908
11041 11043 11043 11042 11042 11041 11040 11040 11039 11037 11035 11032 11030 11027 11022 11018 11013 11009 11003 10997 10992 10988 10983 10978 10973 10968 10962 10958 10953 10948 10943 10940 10936 10933 10929 10925 10923 10921 10920 10918 10915 10911 10909 10909 10907 10906 10905 10905 10903
11038 11040 11040 11039 11039 11038 11038 11038 11037 11035 11032 11028 11025 11021 11017 11013 11008 11003 10998 10994 10988 10984 10979 10975 10970 10965 10959 10953 10948 10944 10939 10933 10929 10927 10924 10921 10918 10916 10914 10913 10911 10907 10905 10905 10906 10905 10903 10905 10905
11035 11036 11037 11037 11036 11035 11034 11035 11034 11032 11029 11026 11022 11018 11014 11009 11003 10998 10994 10990 10986 10981 10975 10970 10966 10960 10955 10951 10944 10938 10933 10928 10923 10920 10916 10912 10908 10905 10903 10901 10900 10898 10897 10895 10896 10896 10894 10894 10898
11032 11034 11034 11033 11033 11032 11032 11032 11031 11028 11026 11021 11019 11016 11012 11007 11002 10997 10992 10986 10982 10977 10969 10964 10958 10952 10946 10941 10937 10931 10925 10920 10915 10911 10906 10903 10900 10896 10891 10888 10886 10886 10887 10886 10885 10886 10886 10887 10884
11028 11029 11030 11030 11030 11029 11029 11029 11026 11023 11021 11018 11014 11010 11005 11000 10997 10991 10985 10980 10973 10967 10961 10954 10949 10944 10938 10932 10927 10923 10920 10915 10909 10901 10896 10890 10886 10883 10879 10875 10873 10872 10872 10872 10874 10874 10875 10872 10874
11024 11026 11025 11026 11027 11027 11025 11025 11022 11019 11017 11015 11010 11006 11001 10997 10992 10985 10980 10974 10969 10962 10955 10949 10943 10937 10931 10925 10919 10914 10908 10902 10894 10888 10882 10876 10870 10866 10863 10859 10855 10855 10855 10856 10858 10853 10842 10858 10857
11020 11020 11020 11021 11022 11021 11020 11020 11016 11014 11010 11007 11005 11001 10996 10991 10985 10979 10973 10967 10962 10956 10949 10943 10936 10929 10921 10914 10909 10903 10898 10891 10884 10878 10873 10866 10859 10852 10845 10841 10838 10836 10836 10837 10838 10834 10832 10835 10831
11014 11015 11015 11016 11016 11014 11015 11012 11009 11007 11003 11001 10997 10994 10990 10985 10979 10973 10966 10960 10953 10947 10939 10932 10924 10918 10911 10904 10897 10890 10883 10876 10869 10861 10855 10848 10842 10834 10827 10822 10818 10817 10816 10815 10816 10814 10810 10813 10815
11009 11009 11010 11010 11009 11008 11007 11005 11003 11000 10998 10995 10991 10987 10983 10978 10972 10965 10958 10951 10946 10939 10931 10926 10919 10911 10903 10895 10887 10880 10872 10864 10857 10849 10843 10834 10826 10818 10812 10805 10800 10796 10794 10792 10792 10791 10793 10795 10798
11004 11004 11004 11004 11003 11002 11000 11000 10997 10993 10991 10989 10986 10982 10977 10973 10967 10960 10952 10947 10941 10933 10926 10918 10908 10901 10893 10886 10878 10869 10860 10851 10842 10833 10823 10814 10806 10799 10794 10787 10781 10775 10771 10769 10768 10767 10767 10772 10778